Location: Laupheim
(48.2265°N, 9.8829°E)
Time: 09:36:12
(UTC+01:00)

Envisat - Visible Passes

Search period start: 22 February 2018 00:00
Search period end: 04 March 2018 00:00
Orbit: 764 x 766 km, 98.2° (Epoch: 21 February)

Date Brightness Start Highest point End Pass type
(mag) Time Alt. Az. Time Alt. Az. Time Alt. Az.
22 Feb 3.0 19:18:30 10° SSE 19:23:30 60° ENE 19:28:29 10° N visible
22 Feb 5.3 20:59:09 10° SW 21:02:54 21° W 21:06:41 10° NW visible
23 Feb 3.8 18:42:35 10° SE 18:46:59 30° ENE 18:51:23 10° N visible
23 Feb 4.2 20:21:05 10° SSW 20:25:53 41° W 20:30:42 10° NNW visible
24 Feb 3.0 19:43:57 10° SSE 19:49:02 84° WSW 19:54:09 10° NNW visible
24 Feb 5.9 21:26:52 10° WSW 21:28:50 12° W 21:30:50 10° WNW visible
25 Feb 3.2 19:07:32 10° SE 19:12:23 48° ENE 19:17:17 10° N visible
25 Feb 5.1 20:47:29 10° SSW 20:51:39 25° W 20:55:51 10° NW visible
26 Feb 4.0 18:31:50 10° ESE 18:35:56 25° ENE 18:40:04 10° N visible
26 Feb 3.8 20:09:45 10° S 20:14:41 51° W 20:19:39 10° NNW visible
27 Feb 2.9 19:32:50 10° SSE 19:37:54 79° ENE 19:43:00 10° NNW visible
27 Feb 5.7 21:14:37 10° WSW 21:17:33 15° W 21:20:29 10° NW visible
28 Feb 3.4 18:56:37 10° SE 19:01:19 40° ENE 19:06:03 10° N visible
28 Feb 4.7 20:35:57 10° SSW 20:40:25 31° W 20:44:56 10° NNW visible
01 Mar 3.4 19:58:29 10° S 20:03:31 63° W 20:08:34 10° NNW visible
02 Mar 3.0 19:21:46 10° SSE 19:26:47 65° ENE 19:31:50 10° N visible
02 Mar 5.5 21:02:43 10° SW 21:06:16 19° W 21:09:51 10° NW visible
03 Mar 3.7 18:45:46 10° SE 18:50:15 33° ENE 18:54:46 10° N visible
03 Mar 4.4 20:24:30 10° SSW 20:29:12 38° W 20:33:57 10° NNW visible
